Patuxent River, MD

11:38 PM EST on February 20, 2017 (GMT -0500)
Patuxent River Naval Air Station

Weather History for KNHK - May, 2013

Change the Weather History Date:

Wednesday, May 8, 2013

  Actual Average Record
Temperature  
Mean Temperature 60 °F -  
Max Temperature 68 °F 70 °F 89 °F (2000)
Min Temperature 52 °F 49 °F 37 °F (1997)
Degree Days  
Heating Degree Days 5    
Growing Degree Days 10 (Base 50)    
Moisture  
Dew Point 56 °F    
Average Humidity 83    
Maximum Humidity 94    
Minimum Humidity 63    
Precipitation  
Precipitation 0.25 in - - ()
Sea Level Pressure  
Sea Level Pressure 29.97 in    
Wind  
Wind Speed 5 mph (SE)    
Max Wind Speed 13 mph    
Max Gust Speed -    
Visibility 8 miles    
Events Fog , Rain , Thunderstorm    
Averages and records for this station are not official NWS values.
T = Trace of Precipitation, MM = Missing Value Source: NWS Daily Summary

Daily Weather History Graph

Daily Weather History Graph

Search for Another Location

Airport or City:

Trip Planner

Search our weather history database for the weather conditions in past years. The results will help you decide how hot, cold, wet, or windy it might be!

Date:

Astronomy

May. 08, 2013 Rise Set
Actual Time 6:01 AM EDT 8:03 PM EDT
Civil Twilight 5:31 AM EDT 8:33 PM EDT
Nautical Twilight 4:56 AM EDT 9:08 PM EDT
Astronomical Twilight 4:18 AM EDT 9:47 PM EDT
Moon 5:06 AM EDT (5/8) 7:00 PM EDT (5/8)
Length of Visible Light 15h 01m
Length of Day
14h 02m
Waning Crescent, 2% of the Moon is Illuminated
May 8
Waning Crescent
May 9
New
May 18
First Quarter
May 25
Full
May 31
Last Quarter

Hourly Weather History & Observations

Time (EDT) Temp. Dew Point Humidity Pressure Visibility Wind Dir Wind Speed Gust Speed Precip Events Conditions
12:52 AM 60.1 °F 55.9 °F 86% 29.98 in 10.0 mi ESE 9.2 mph - N/A   Overcast
1:52 AM 60.1 °F 55.9 °F 86% 29.96 in 10.0 mi ESE 5.8 mph - N/A   Mostly Cloudy
2:52 AM 60.1 °F 55.9 °F 86% 29.95 in 10.0 mi ESE 6.9 mph - N/A   Overcast
3:52 AM 57.9 °F 55.0 °F 90% 29.95 in 10.0 mi SE 4.6 mph - N/A   Partly Cloudy
4:26 AM 57.2 °F 55.4 °F 94% 29.95 in 10.0 mi SSE 3.5 mph - N/A   Scattered Clouds
4:52 AM 57.0 °F 54.0 °F 89% 29.95 in 10.0 mi SE 3.5 mph - N/A   Clear
5:52 AM 55.9 °F 53.1 °F 90% 29.95 in 7.0 mi Calm Calm - N/A Fog Patches of Fog
6:27 AM 53.6 °F 51.8 °F 94% 29.96 in 5.0 mi Calm Calm - N/A Fog Patches of Fog
6:52 AM 52.0 °F 50.0 °F 93% 29.97 in 5.0 mi Calm Calm - N/A Fog Patches of Fog
7:52 AM 60.1 °F 55.9 °F 86% 29.99 in 6.0 mi South 3.5 mph - N/A Fog Patches of Fog
8:52 AM 64.0 °F 57.0 °F 78% 30.00 in 8.0 mi NNE 3.5 mph - N/A   Mostly Cloudy
9:52 AM 66.0 °F 57.0 °F 73% 30.00 in 10.0 mi ENE 4.6 mph - N/A   Mostly Cloudy
10:52 AM 66.0 °F 57.9 °F 75% 30.00 in 10.0 mi East 6.9 mph - N/A   Mostly Cloudy
11:52 AM 66.0 °F 57.9 °F 75% 30.01 in 10.0 mi East 9.2 mph - N/A   Mostly Cloudy
12:52 PM 68.0 °F 60.1 °F 76% 29.99 in 10.0 mi ESE 10.4 mph - 0.01 in   Mostly Cloudy
1:52 PM 64.9 °F 55.0 °F 70% 29.98 in 10.0 mi ESE 12.7 mph - N/A   Mostly Cloudy
2:52 PM 66.9 °F 54.0 °F 63% 29.96 in 10.0 mi ESE 12.7 mph - N/A   Mostly Cloudy
3:52 PM 66.0 °F 54.0 °F 65% 29.95 in 10.0 mi SE 8.1 mph - N/A   Mostly Cloudy
4:18 PM 64.4 °F 55.4 °F 73% 29.96 in 6.0 mi SSW 6.9 mph - 0.01 in Rain Light Rain
4:21 PM 64.4 °F 55.4 °F 73% 29.96 in 6.0 mi WSW 6.9 mph - 0.01 in Rain , Thunderstorm Thunderstorms and Rain
4:52 PM 64.0 °F 57.0 °F 78% 29.96 in 3.0 mi Calm Calm - 0.02 in Rain , Thunderstorm Thunderstorms and Rain
4:54 PM 64.4 °F 57.2 °F 77% 29.96 in 10.0 mi Calm Calm - 0.00 in Rain Light Rain
5:52 PM 62.1 °F 57.0 °F 84% 29.98 in 6.0 mi South 4.6 mph - 0.02 in Rain Light Rain
6:13 PM 60.8 °F 57.2 °F 88% 29.98 in 6.0 mi Variable 4.6 mph - 0.05 in Rain Light Rain
6:29 PM 60.8 °F 55.4 °F 82% 29.97 in 2.0 mi Calm Calm - 0.13 in Rain Rain
6:37 PM 60.8 °F 55.4 °F 82% 29.97 in 5.0 mi Calm Calm - 0.13 in Rain Rain
6:52 PM 60.1 °F 55.9 °F 86% 29.98 in 5.0 mi SSW 3.5 mph - 0.14 in Rain Rain
7:52 PM 60.1 °F 57.0 °F 90% 29.97 in 9.0 mi Calm Calm - 0.03 in Rain Light Rain
8:52 PM 59.0 °F 55.9 °F 90% 29.97 in 10.0 mi Calm Calm - 0.00 in   Mostly Cloudy
9:52 PM 59.0 °F 55.9 °F 90% 29.98 in 10.0 mi ESE 3.5 mph - 0.00 in Rain Light Rain
10:52 PM 59.0 °F 55.9 °F 90% 29.97 in 10.0 mi Calm Calm - 0.01 in Rain Light Rain
11:47 PM 60.8 °F 57.2 °F 88% 29.96 in 7.0 mi Calm Calm - 0.01 in Rain Light Rain
11:52 PM 60.1 °F 57.0 °F 90% 29.96 in 4.0 mi Calm Calm - 0.02 in Rain Rain